Location: Caltech
(34.1382°N, 118.1253°W)
Time: 04:07:50
(UTC-07:00)

ASTRO E2 - Visible Passes

Search period start: 23 July 2016 00:00
Search period end: 02 August 2016 00:00
Orbit: 518 x 524 km, 31.4° (Epoch: 22 July)

Date Brightness Start Highest point End Pass type
(mag) Time Alt. Az. Time Alt. Az. Time Alt. Az.
23 Jul 2.9 03:58:05 54° SSE 03:58:05 54° SSE 04:01:46 10° E visible
24 Jul 3.6 03:42:59 39° ESE 03:42:59 39° ESE 03:45:44 10° E visible
24 Jul 3.1 05:18:20 10° W 05:22:13 46° S 05:26:06 10° ESE visible
25 Jul 4.5 03:27:59 24° ESE 03:27:59 24° ESE 03:29:42 10° E visible
25 Jul 3.2 05:03:00 14° W 05:06:10 42° SSW 05:09:59 10° ESE visible
26 Jul 5.3 03:13:08 13° ESE 03:13:08 13° ESE 03:13:40 10° ESE visible
26 Jul 3.3 04:48:09 23° WSW 04:50:06 38° SSW 04:53:52 10° SE visible
27 Jul 3.4 04:33:30 33° SW 04:34:02 34° SSW 04:37:43 10° SE visible
28 Jul 4.0 04:19:04 26° SSE 04:19:04 26° SSE 04:21:32 10° SE visible
29 Jul 5.1 04:04:50 12° SE 04:04:50 12° SE 04:05:18 10° SE visible
31 Jul 4.7 20:31:01 10° S 20:32:27 12° SSE 20:33:50 10° SE visible
01 Aug 4.4 21:52:43 10° SW 21:54:25 22° SW 21:54:25 22° SW visible
